Location: Blanton
(30.8302°N, 83.1188°W)
Time: 09:46:34
(UTC+00:00)

Envisat - Visible Passes

Search period start: 30 November 2021 00:00
Search period end: 10 December 2021 00:00
Orbit: 764 x 766 km, 98.2° (Epoch: 29 November)

Date Brightness Start Highest point End Pass type
(mag) Time Alt. Az. Time Alt. Az. Time Alt. Az.
30 Nov 4.7 09:48:16 10° NE 09:52:46 32° E 09:57:15 10° SSE visible
30 Nov 4.1 11:27:40 10° NNW 11:31:33 23° WNW 11:35:25 10° WSW visible
01 Dec 6.0 09:13:33 10° ENE 09:15:42 13° E 09:17:50 10° ESE visible
01 Dec 3.0 10:50:00 10° N 10:54:56 54° WNW 10:59:51 10° SSW visible
02 Dec 3.5 10:13:07 10° NNE 10:18:08 61° E 10:23:08 10° S visible
02 Dec 6.0 23:03:10 10° SW 23:06:06 15° W 23:09:03 10° WNW visible
03 Dec 5.1 09:37:05 10° NE 09:41:11 24° E 09:45:14 10° SSE visible
03 Dec 3.7 11:15:45 10° NNW 11:20:05 29° WNW 11:24:25 10° SW visible
04 Dec 2.8 10:38:21 10° N 10:43:25 72° WNW 10:48:27 10° SSW visible
05 Dec 4.0 10:01:42 10° NNE 10:06:34 45° E 10:11:24 10° S visible
05 Dec 4.4 11:42:07 10° NNW 11:45:09 16° WNW 11:48:10 10° WSW visible
05 Dec 5.8 22:50:46 10° SW 22:54:28 20° W 22:58:12 10° NW visible
06 Dec 5.5 09:26:04 10° NE 09:29:33 18° E 09:33:01 10° SE visible
06 Dec 3.4 11:03:57 10° N 11:08:36 38° WNW 11:13:15 10° SW visible
07 Dec 2.9 10:26:47 10° NNE 10:31:53 87° ESE 10:36:57 10° SSW visible
07 Dec 6.6 23:19:22 10° W 23:19:59 10° W 23:20:34 10° W visible
08 Dec 4.5 09:50:22 10° NNE 09:54:59 34° E 09:59:34 10° SSE visible
08 Dec 4.1 11:29:59 10° NNW 11:33:42 21° WNW 11:37:25 10° WSW visible
09 Dec 5.9 09:15:22 10° ENE 09:17:55 14° E 09:20:27 10° SE visible
09 Dec 3.1 10:52:13 10° N 10:57:07 50° WNW 11:01:59 10° SSW visible
